Overview Statistics Trail Chart Weather Telemetry Raw packets
 

This is the latest recevied weather packets stored in our database for station/object KC1TEM-13. If no packets are shown the sender has not sent any weather packets the latest 10 day(s).

<< 38 39 40 41 42 43 44 >>
Time Temp. Humidity Pressure Rain* Wind** Luminosity Snow
1788357826 18.89° C 92% 1023 hPa 0 mm - 370 W/m² -
1788357530 18.89° C 92% 1022.8 hPa 0 mm - 259 W/m² -
1788357221 18.33° C 93% 1022.9 hPa 0 mm - 192 W/m² -
1788356920 18.33° C 93% 1022.8 hPa 0 mm - 194 W/m² -
1788356616 18.33° C 94% 1022.9 hPa 0 mm - 189 W/m² -
1788356311 17.78° C 95% 1023 hPa 0 mm - 162 W/m² -
1788356011 17.78° C 95% 1022.8 hPa 0 mm - 85 W/m² -
1788355706 17.78° C 95% 1023 hPa 0 mm - 100 W/m² -
1788355401 17.78° C 94% 1023.2 hPa 0 mm - 76 W/m² -
1788355097 17.78° C 95% 1023.1 hPa 0 mm - 98 W/m² -
1788354794 17.78° C 95% 1023.2 hPa 0 mm - 92 W/m² -
1788354493 17.78° C 95% 1023.2 hPa 0 mm - 91 W/m² -
1788354189 17.78° C 95% 1023.1 hPa 0 mm - 82 W/m² -
1788353884 17.78° C 95% 1022.8 hPa 0 mm - 101 W/m² -
1788353579 17.78° C 96% 1022.9 hPa 0 mm - 87 W/m² -
1788353276 17.78° C 96% 1023.1 hPa 0 mm - 100 W/m² -
1788352971 17.22° C 97% 1023.3 hPa 0 mm - 96 W/m² -
1788352666 17.22° C 97% 1023 hPa 0 mm - 80 W/m² -
1788352363 17.22° C 98% 1023.1 hPa 0 mm - 58 W/m² -
1788352061 17.22° C 98% 1023.3 hPa 0 mm - 65 W/m² -
1788351757 17.22° C 98% 1023.2 hPa 0 mm - 57 W/m² -
1788351456 17.22° C 99% 1022.9 hPa 0 mm - 59 W/m² -
1788351152 17.22° C 99% 1023.3 hPa 0 mm - 50 W/m² -
1788350847 17.22° C 99% 1023.2 hPa 0 mm - 41 W/m² -
1788350544 17.22° C 99% 1023.2 hPa 0 mm - 30 W/m² -

* Rain latest hour (hover to see other rain measurements)
** Current wind speed in m/s (hover to see current wind gust speed)